Weather History for KCSV - December, 2012

Change the Weather History Date:

Tuesday, December 18, 2012

  Actual Average Record
Temperature  
Mean Temperature 46 °F 38 °F  
Max Temperature 52 °F 46 °F 67 °F (1962)
Min Temperature 39 °F 29 °F 4 °F (1963)
Degree Days  
Heating Degree Days 19    
Month to date heating degree days 278  
Since 1 July heating degree days 1243  
Cooling Degree Days 0    
Month to date cooling degree days 0  
Year to date cooling degree days 1156  
Moisture  
Dew Point 34 °F    
Average Humidity 61    
Maximum Humidity 86    
Minimum Humidity 36    
Precipitation  
Precipitation 0.00 in 0.15 in 3.50 in (1959)
Month to date precipitation 2.35 3.05  
Year to date precipitation 44.12 53.19  
Sea Level Pressure  
Sea Level Pressure 29.87 in    
Wind  
Wind Speed 7 mph (West)    
Max Wind Speed 17 mph    
Max Gust Speed 26 mph    
Visibility 10 miles    
Events      
T = Trace of Precipitation, MM = Missing Value Source: NWS Daily Summary

Daily Weather History Graph

Daily Weather History Graph

Search for Another Location

Airport or City:

Trip Planner

Search our weather history database for the weather conditions in past years. The results will help you decide how hot, cold, wet, or windy it might be!

Date:

Astronomy

Dec. 18, 2012 Rise Set
Actual Time 6:45 AM CST 4:28 PM CST
Civil Twilight 6:17 AM CST 4:57 PM CST
Nautical Twilight 5:44 AM CST 5:29 PM CST
Astronomical Twilight 5:13 AM CST 6:00 PM CST
Moon 10:35 AM CST (12/18) 10:42 PM CST (12/18)
Length of Visible Light 10h 40m
Length of Day
9h 43m
Waxing Crescent, 35% of the Moon is Illuminated
Dec 18
Waxing Crescent
Dec 19
First Quarter
Dec 28
Full
Jan 4
Last Quarter
Jan 11
New

Hourly Weather History & Observations

Time (CST) Temp. Windchill Dew Point Humidity Pressure Visibility Wind Dir Wind Speed Gust Speed Precip Events Conditions
12:18 AM 46.4 °F 42.9 °F 42.8 °F 87% 29.72 in 10.0 mi West 6.9 mph 17.3 mph N/A   Overcast
12:36 AM 46.4 °F 40.4 °F 42.8 °F 87% 29.74 in 10.0 mi West 13.8 mph 20.7 mph N/A   Overcast
12:53 AM 46.0 °F 40.2 °F 41.0 °F 83% 29.73 in 10.0 mi WNW 12.7 mph 21.9 mph N/A   Overcast
1:06 AM 46.4 °F 40.1 °F 39.2 °F 76% 29.75 in 10.0 mi WNW 15.0 mph 26.5 mph N/A   Overcast
1:31 AM 44.6 °F 38.8 °F 39.2 °F 81% 29.76 in 10.0 mi West 11.5 mph - N/A   Overcast
1:48 AM 44.6 °F 38.4 °F 39.2 °F 81% 29.77 in 10.0 mi WNW 12.7 mph 20.7 mph N/A   Overcast
1:53 AM 44.1 °F 36.8 °F 39.0 °F 82% 29.76 in 10.0 mi WNW 16.1 mph 23.0 mph N/A   Overcast
2:53 AM 42.1 °F 35.2 °F 37.0 °F 82% 29.77 in 10.0 mi WNW 12.7 mph - N/A   Overcast
3:53 AM 41.0 °F 34.7 °F 36.0 °F 82% 29.80 in 10.0 mi West 10.4 mph - N/A   Overcast
4:14 AM 41.0 °F 35.2 °F 35.6 °F 81% 29.81 in 10.0 mi WNW 9.2 mph 17.3 mph N/A   Overcast
4:39 AM 41.0 °F 34.3 °F 35.6 °F 81% 29.82 in 10.0 mi WNW 11.5 mph 19.6 mph N/A   Overcast
4:53 AM 41.0 °F 35.8 °F 35.1 °F 79% 29.82 in 10.0 mi WNW 8.1 mph 17.3 mph N/A   Overcast
5:53 AM 41.0 °F 36.4 °F 36.0 °F 82% 29.86 in 10.0 mi WNW 6.9 mph - N/A   Overcast
6:24 AM 41.0 °F 37.1 °F 35.6 °F 81% 29.87 in 10.0 mi WNW 5.8 mph - N/A   Overcast
6:53 AM 39.9 °F 32.5 °F 34.0 °F 79% 29.89 in 10.0 mi WNW 12.7 mph - N/A   Overcast
7:53 AM 39.9 °F 35.1 °F 33.1 °F 77% 29.90 in 10.0 mi West 6.9 mph - N/A   Overcast
8:53 AM 41.0 °F 37.1 °F 32.0 °F 70% 29.92 in 10.0 mi West 5.8 mph - N/A   Mostly Cloudy
9:04 AM 41.0 °F 35.2 °F 32.0 °F 70% 29.92 in 10.0 mi West 9.2 mph - N/A   Scattered Clouds
9:53 AM 43.0 °F 39.5 °F 33.1 °F 68% 29.94 in 10.0 mi West 5.8 mph - N/A   Clear
10:53 AM 46.0 °F 43.9 °F 33.1 °F 61% 29.94 in 10.0 mi WSW 4.6 mph - N/A   Clear
11:53 AM 48.0 °F - 30.9 °F 52% 29.91 in 10.0 mi WNW 3.5 mph - N/A   Clear
12:53 PM 50.0 °F - 30.0 °F 46% 29.91 in 10.0 mi WSW 6.9 mph - N/A   Clear
1:53 PM 52.0 °F - 28.9 °F 41% 29.91 in 10.0 mi WSW 9.2 mph - N/A   Clear
2:53 PM 52.0 °F - 27.0 °F 38% 29.92 in 10.0 mi Variable 3.5 mph - N/A   Clear
3:53 PM 50.0 °F - 24.1 °F 36% 29.91 in 10.0 mi Calm Calm - N/A   Clear
4:53 PM 45.0 °F - 28.0 °F 52% 29.91 in 10.0 mi Calm Calm - N/A   Clear
5:53 PM 46.0 °F 43.9 °F 28.0 °F 50% 29.91 in 10.0 mi South 4.6 mph - N/A   Clear
6:53 PM 45.0 °F 43.5 °F 32.0 °F 60% 29.93 in 10.0 mi South 3.5 mph - N/A   Clear
7:53 PM 46.0 °F 43.1 °F 32.0 °F 58% 29.94 in 10.0 mi SSW 5.8 mph - N/A   Clear
8:53 PM 45.0 °F 41.8 °F 30.9 °F 58% 29.95 in 10.0 mi WSW 5.8 mph - N/A   Clear
9:53 PM 43.0 °F 41.3 °F 30.0 °F 60% 29.95 in 10.0 mi Variable 3.5 mph - N/A   Clear
10:53 PM 43.0 °F 39.5 °F 28.9 °F 58% 29.96 in 10.0 mi SW 5.8 mph - N/A   Clear
11:53 PM 43.0 °F 41.3 °F 30.9 °F 62% 29.96 in 10.0 mi SSW 3.5 mph - N/A   Clear